This is the latest recevied weather packets stored in our database for station/object HB9FHL-13. If no packets are shown the sender has not sent any weather packets the latest 10 day(s).
| Time | Temp. | Humidity | Pressure | Rain* | Wind** | Luminosity | Snow |
|---|---|---|---|---|---|---|---|
| 1778040507 | 11.67° C | - | 1007.2 hPa | 0 mm | - | - | - |
| 1778040204 | 11.11° C | - | 1006.6 hPa | 0 mm | - | - | - |
| 1778039902 | 12.22° C | - | 1004.7 hPa | 0 mm | - | - | - |
| 1778039600 | 11.67° C | - | 1008.6 hPa | 0 mm | - | - | - |
| 1778039300 | 10.56° C | - | 1007.1 hPa | 0 mm | - | - | - |
| 1778038999 | 11.11° C | - | 1007.4 hPa | 0 mm | - | - | - |
| 1778038398 | 12.22° C | - | 1007.1 hPa | 0 mm | - | - | - |
| 1778037797 | 12.22° C | - | 1005.4 hPa | 0 mm | - | - | - |
| 1778037496 | 11.67° C | - | 1008.3 hPa | 0 mm | - | - | - |
| 1778037196 | 11.67° C | - | 1011.4 hPa | 0 mm | - | - | - |
| 1778036895 | 11.67° C | - | 1005.7 hPa | 0 mm | - | - | - |
| 1778036591 | 11.11° C | - | 1007.2 hPa | 0 mm | - | - | - |
| 1778036290 | 11.67° C | - | 1008.9 hPa | 0 mm | - | - | - |
| 1778035990 | 11.67° C | - | 1010.6 hPa | 0 mm | - | - | - |
| 1778035689 | 12.22° C | - | 1008 hPa | 0 mm | - | - | - |
| 1778035389 | 11.67° C | - | 1006.4 hPa | 0 mm | - | - | - |
| 1778035088 | 11.11° C | - | 1007.5 hPa | 0 mm | - | - | - |
| 1778034788 | 11.11° C | - | 1010.8 hPa | 0 mm | - | - | - |
| 1778034487 | 11.67° C | - | 1006.4 hPa | 0 mm | - | - | - |
| 1778034187 | 11.67° C | - | 1006.8 hPa | 0 mm | - | - | - |
| 1778033886 | 11.67° C | - | 1008.8 hPa | 0 mm | - | - | - |
| 1778033586 | 11.67° C | - | 1009 hPa | 0 mm | - | - | - |
| 1778033285 | 11.67° C | - | 1008.4 hPa | 0 mm | - | - | - |
| 1778032985 | 12.22° C | - | 1011 hPa | 0 mm | - | - | - |
| 1778032684 | 12.78° C | - | 1005.8 hPa | 0 mm | - | - | - |
* Rain since midnight (hover to see other rain measurements)
** Current wind speed in m/s (hover to see current wind gust speed)